Location: Newark
(44.9861°N, 0.2536°E)
Time: 22:42:24
(UTC+00:00)

HuskySat-1 - Pass Details

Date: 12 July 2020
Orbit: 457 x 471 km, 51.6° (Epoch: 10 August)

Event Time Altitude Azimuth Distance (km) Brightness Sun altitude
Exits shadow 00:48:19 62° 326° (NW) 524 ? -22.4°
Maximum altitude 00:48:24 62° 334° (NNW) 523 ? -22.3°
Drops below altitude 10° 00:52:00 10° 57° (ENE) 1,611 ? -22.2°
Sets 00:54:10 0° 60° (ENE) 2,485 ? -22.1°
